Stations météo

Publicité
Freiburg, Allemagne (10803): Température de l'air & dewpoint: 18.10.2018 01:00:00 - 24.10.2018 01:00:00 (CEST)Freiburg, Allemagne (10803): Température de l'air 5cm & Température de l'air -5cm: 18.10.2018 01:00:00 - 24.10.2018 01:00:00 (CEST)Freiburg, Allemagne (10803): Température de l'air -20cm & Température de l'air -100cm: 18.10.2018 01:00:00 - 24.10.2018 01:00:00 (CEST)Freiburg, Allemagne (10803): Vitesse du vent & gusts: 18.10.2018 01:00:00 - 24.10.2018 01:00:00 (CEST)Freiburg, Allemagne (10803): Direction du vent: 18.10.2018 01:00:00 - 24.10.2018 01:00:00 (CEST)Freiburg, Allemagne (10803): reduced air pressure: 18.10.2018 01:00:00 - 24.10.2018 01:00:00 (CEST)Freiburg, Allemagne (10803): visibility: 18.10.2018 01:00:00 - 24.10.2018 01:00:00 (CEST)Freiburg, Allemagne (10803): Ensoleillement: 18.10.2018 01:00:00 - 24.10.2018 01:00:00 (CEST)Freiburg, Allemagne (10803): Quantités de précipitations: 18.10.2018 01:00:00 - 24.10.2018 01:00:00 (CEST)
Date & Time tt [°C] td [°C] tt 5cm [°C] tt -5cm [°C] tt -20cm [°C] tt -100cm [°C] ff [km/h] ff [knt] fx [km/h] fx [knt] dd ppp [hPa] vv [km] sd [min] rr [mm]
24.10.2018 01:00:00 11,9 3,4 10,0 10,2 11,4 14,7 9 5 14 8 SW 1027,7 55 0 0,0
24.10.2018 00:00:00 13,2 3,3 12,3 10,9 11,4 14,7 8 4 23 12 W 1028,5 52 0 0,0
23.10.2018 23:00:00 13,9 3,3 13,0 11,1 11,5 14,8 17 9 25 13 SSW 1028,1 61 0 0,0
23.10.2018 22:00:00 14,2 3,0 13,5 11,3 11,5 14,8 18 10 26 14 SW 1027,6 70 0 0,0
23.10.2018 21:00:00 14,2 3,0 13,1 11,3 11,5 14,8 16 9 29 16 SW 1027,2 67 0 0,0
23.10.2018 20:00:00 14,4 3,4 13,5 11,5 11,5 14,8 17 9 26 14 SW 1026,6 65 0 0,0
23.10.2018 19:00:00 14,8 5,2 13,7 11,5 11,5 14,8 11 6 24 13 SSW 1026,4 49 0 0,0
23.10.2018 18:00:00 13,7 5,9 12,2 12,1 11,4 14,8 5 3 13 7 SSW 1026,7 21 12 0,0
23.10.2018 17:00:00 14,4 5,8 15,4 13,5 11,2 14,8 8 4 22 12 SW 1027,1 18 11 0,0
23.10.2018 16:00:00 13,9 5,8 15,1 14,3 10,7 14,8 10 5 16 9 WSW 1027,8 17 4 0,0
23.10.2018 15:00:00 14,2 6,0 18,3 16,3 10,1 14,9 7 4 14 7 SW 1028,7 24 34 0,0
23.10.2018 14:00:00 13,0 6,0 16,4 15,2 9,6 14,9 5 3 10 5 S 1029,7 16 34 0,0
23.10.2018 13:00:00 11,7 6,1 13,8 12,4 9,1 14,9 5 3 8 4 WNW 1030,7 15 0 0,0
23.10.2018 12:00:00 10,6 5,5 14,7 11,4 8,7 14,9 3 1 10 5 NNW 1031,4 13 1 0,0
23.10.2018 11:00:00 9,0 5,1 10,6 9,3 8,5 14,9 3 2 6 3 S 1031,6 13 24 0,0
23.10.2018 10:00:00 6,1 4,3 7,0 6,2 8,5 14,9 3 2 8 4 WSW 1032,0 10 7 0,0
23.10.2018 09:00:00 2,3 1,8 1,0 3,7 8,6 14,9 3 2 4 2 NNW 1031,7 4,6 0 0,0
23.10.2018 08:00:00 2,1 1,7 -1,3 3,2 8,9 14,9 4 2 9 5 NE 1031,2 6 0 0,0
23.10.2018 07:00:00 2,4 2,0 -2,0 3,4 9,1 15,0 7 4 8 4 WSW 1031,7 7 0 0,0
23.10.2018 06:00:00 2,5 2,2 -1,3 3,7 9,4 15,0 4 2 9 5 WSW 1032,5 7 0 0,0
23.10.2018 05:00:00 3,8 3,0 -2,3 4,0 9,7 15,0 5 3 8 4 ENE 1032,2 14 0 0,0
23.10.2018 04:00:00 2,4 1,7 -0,8 4,4 10,0 15,0 5 3 8 4 N 1031,9 12 0 0,0
23.10.2018 03:00:00 3,0 2,4 -1,3 4,8 10,3 15,0 0 0 4 2 N 1032,7 14 0 0,0
23.10.2018 02:00:00 4,5 3,2 -1,0 5,3 10,6 15,0 2 1 5 3 SW 1032,2 17 0 0,0
23.10.2018 01:00:00 3,5 2,0 -0,8 5,8 11,0 15,0 3 2 5 3 W 1032,7 20 0 0,0
23.10.2018 00:00:00 4,6 2,3 -0,4 6,5 11,3 15,0 2 1 3 2 SE 1032,2 30 0 0,0
22.10.2018 23:00:00 5,4 2,5 0,3 7,4 11,6 15,1 0 0 6 3 N 1031,9 35 0 0,0
22.10.2018 22:00:00 7,7 3,7 2,1 8,7 11,9 15,1 4 2 9 5 NNE 1031,2 22 0 0,0
22.10.2018 21:00:00 11,3 3,7 6,2 10,3 12,0 15,1 3 2 7 4 NE 1030,4 35 0 0,0
22.10.2018 20:00:00 13,3 3,6 11,7 11,6 12,1 15,1 4 2 18 10 NE 1029,5 26 0 0,0
22.10.2018 19:00:00 13,9 3,1 12,4 12,2 12,1 15,1 8 5 24 13 N 1028,6 65 0 0,0
22.10.2018 18:00:00 14,9 3,2 14,8 13,4 12,0 15,1 11 6 26 14 N 1027,6 69 41 0,0
22.10.2018 17:00:00 15,9 3,2 19,1 15,2 11,7 15,1 14 8 25 13 NNW 1027,3 48 60 0,0
22.10.2018 16:00:00 15,5 2,8 20,3 16,6 11,1 15,1 16 9 34 18 N 1027,1 35 60 0,0
22.10.2018 15:00:00 15,4 2,8 21,7 17,5 10,4 15,2 17 9 29 16 N 1026,9 26 60 0,0
22.10.2018 14:00:00 14,7 4,1 21,9 17,0 9,6 15,2 9 5 19 11 NNW 1027,1 25 60 0,0
22.10.2018 13:00:00 12,1 3,9 16,8 15,7 8,9 15,2 4 2 14 8 WSW 1027,6 26 60 0,0
22.10.2018 12:00:00 9,6 3,0 13,6 12,7 8,4 15,2 3 2 16 8 SSE 1028,0 23 60 0,0
22.10.2018 11:00:00 7,1 3,8 11,2 9,2 8,1 15,2 4 2 17 9 N 1028,3 19 60 0,0
22.10.2018 10:00:00 4,7 3,2 7,7 5,3 8,1 15,2 5 3 9 5 NW 1028,1 13 59 0,0
22.10.2018 09:00:00 0,8 0,0 -1,3 1,8 8,4 15,2 4 2 10 6 NE 1028,4 11 10 0,0
22.10.2018 08:00:00 -2,6 -3,2 -5,7 1,4 8,7 15,2 3 2 5 3 NNW 1027,4 3,4 0 0,0
22.10.2018 07:00:00 -2,1 -2,8 -4,9 1,8 9,0 15,2 3 1 8 5 W 1027,5 0,1 0 0,0
22.10.2018 06:00:00 -0,4 -1,3 -4,9 2,3 9,3 15,2 2 1 6 4 S 1026,8 10 0 0,0
22.10.2018 05:00:00 1,0 0,7 -3,2 2,7 9,6 15,2 0 0 5 3 N 1026,1 0,1 0 0,0
22.10.2018 04:00:00 1,9 1,1 -3,6 3,2 9,9 15,3 3 1 5 3 S 1026,0 8 0 0,0
22.10.2018 03:00:00 3,4 1,7 -1,6 4,0 10,2 15,3 2 1 9 5 SW 1026,1 20 0 0,0
22.10.2018 02:00:00 3,3 2,0 -0,3 4,4 10,5 15,3 4 2 10 5 NNW 1026,1 13 0 0,0
22.10.2018 01:00:00 2,9 2,5 -0,4 4,7 10,9 15,3 0 0 7 4 N 1026,1 6 0 0,0
22.10.2018 00:00:00 4,4 3,4 0,2 5,4 11,2 15,3 4 2 10 5 NNW 1026,1 9 0 0,0
21.10.2018 23:00:00 4,5 3,8 0,3 6,1 11,6 15,3 4 2 10 5 WNW 1025,7 7 0 0,0
21.10.2018 22:00:00 4,6 3,8 1,3 7,0 11,9 15,3 4 2 11 6 WNW 1025,7 3,3 0 0,0
21.10.2018 21:00:00 6,9 6,2 2,3 7,8 12,2 15,3 2 1 9 5 NNW 1025,5 5 0 0,0
21.10.2018 20:00:00 6,5 5,6 2,8 8,9 12,4 15,3 0 0 5 3 N 1025,4 4,6 0 0,0
21.10.2018 19:00:00 8,5 6,9 4,6 10,4 12,5 15,3 3 1 6 3 W 1025,3 7 0 0,0
21.10.2018 18:00:00 13,2 7,4 14,0 12,9 12,4 15,3 3 2 5 3 NNE 1024,7 10 41 0,0
21.10.2018 17:00:00 12,9 7,6 14,8 14,7 12,1 15,4 3 2 6 3 SW 1025,3 9 60 0,0
21.10.2018 16:00:00 11,1 7,1 15,6 15,2 11,8 15,4 3 2 8 5 W 1026,0 7 41 0,0
21.10.2018 15:00:00 8,6 6,8 12,6 14,0 11,5 15,4 5 3 11 6 NW 1026,8 5 2 0,0
21.10.2018 14:00:00 8,0 7,3 10,8 12,4 11,3 15,4 5 3 10 6 WNW 1027,4 3,0 0 0,0
21.10.2018 13:00:00 7,8 7,5 10,5 11,9 11,1 15,4 3 2 8 4 N 1028,0 2,0 0 0,0
21.10.2018 12:00:00 7,4 7,2 9,1 10,9 10,9 15,4 4 2 8 5 W 1028,5 0,9 0 0,0
21.10.2018 11:00:00 7,0 7,0 8,2 10,0 10,8 15,4 4 2 7 4 NNW 1028,9 0,2 0 0,0
21.10.2018 10:00:00 6,7 6,7 8,0 9,2 10,8 15,4 5 3 8 4 NW 1028,8 0,2 0 0,0
21.10.2018 09:00:00 6,5 6,5 7,1 8,5 10,8 15,4 6 3 10 6 NW 1028,6 0,2 0 0,0
21.10.2018 08:00:00 6,4 6,3 7,0 8,2 10,9 15,4 4 2 5 3 N 1028,7 0,1 0 0,0
21.10.2018 07:00:00 5,7 5,7 6,2 7,8 10,9 15,4 3 1 5 3 NNW 1028,5 0,1 0 0,1
21.10.2018 06:00:00 5,5 5,5 5,5 7,1 11,1 15,4 5 3 8 4 NNW 1028,5 0,1 0 0,0
21.10.2018 05:00:00 3,9 3,9 1,9 6,7 11,3 15,5 6 3 8 4 N 1028,6 0,9 0 0,0
21.10.2018 04:00:00 4,4 4,4 1,8 6,8 11,6 15,5 2 1 3 2 SSW 1029,2 0,1 0 0,0
21.10.2018 03:00:00 4,9 4,9 2,6 7,4 11,8 15,5 2 1 5 3 SSW 1029,0 0,1 0 0,0
21.10.2018 02:00:00 5,9 5,9 5,1 8,1 12,0 15,5 2 1 6 3 ENE 1029,3 0,1 0 0,0
21.10.2018 01:00:00 5,1 4,7 3,3 7,8 12,3 15,5 0 0 5 3 N 1029,6 0,1 0 0,0
21.10.2018 00:00:00 6,4 6,3 4,0 8,2 12,5 15,5 2 1 6 4 W 1029,7 0,1 0 0,0
20.10.2018 23:00:00 6,4 6,2 4,0 8,7 12,8 15,5 2 1 5 3 N 1029,6 1,1 0 0,0
20.10.2018 22:00:00 7,5 7,0 5,4 9,3 13,1 15,5 3 2 5 3 E 1029,5 2,3 0 0,0
20.10.2018 21:00:00 7,9 7,4 4,8 10,0 13,4 15,5 0 0 5 3 N 1029,0 0,8 0 0,0
20.10.2018 20:00:00 8,5 7,7 5,1 10,9 13,6 15,5 2 1 4 2 NW 1028,6 2,6 0 0,0
20.10.2018 19:00:00 11,0 9,8 6,9 12,4 13,7 15,5 3 2 5 3 ENE 1028,3 2,4 0 0,0
20.10.2018 18:00:00 13,7 10,1 14,2 14,6 13,6 15,5 0 0 8 4 N 1027,9 4,0 12 0,0
20.10.2018 17:00:00 13,6 10,2 16,5 16,2 13,3 15,5 8 4 14 8 NNW 1028,1 4,2 60 0,0
20.10.2018 16:00:00 14,0 10,1 18,0 17,5 12,8 15,5 6 4 12 7 NW 1028,1 4,0 58 0,0
20.10.2018 15:00:00 13,0 10,0 17,2 17,0 12,4 15,5 7 4 12 6 NNW 1028,7 3,4 1 0,0
20.10.2018 14:00:00 12,7 9,9 16,7 16,5 11,8 15,6 6 3 14 8 NW 1029,0 3,4 2 0,0
20.10.2018 13:00:00 12,4 9,9 19,2 15,5 11,4 15,6 5 3 10 5 NNW 1029,3 2,9 4 0,0
20.10.2018 12:00:00 10,5 9,8 13,4 12,7 11,1 15,6 4 2 8 4 NNW 1029,6 2,1 0 0,0
20.10.2018 11:00:00 9,5 9,5 10,8 10,5 11,0 15,6 5 3 8 4 SSE 1029,5 1,2 0 0,0
20.10.2018 10:00:00 8,1 8,0 8,6 9,0 10,9 15,6 1 1 8 4 SSE 1029,2 0,4 0 0,0
20.10.2018 09:00:00 5,9 5,8 6,2 7,0 11,1 15,6 0 0 8 5 N 1028,4 0,7 0 0,0
20.10.2018 08:00:00 5,8 5,8 2,7 6,2 11,3 15,6 5 3 7 4 NE 1027,9 1,3 0 0,0
20.10.2018 07:00:00 4,3 4,2 2,0 6,3 11,5 15,6 0 0 4 2 N 1027,8 0,3 0 0,0
20.10.2018 06:00:00 4,3 4,1 1,1 6,6 11,8 15,6 2 1 5 3 N 1027,2 0,2 0 0,0
20.10.2018 05:00:00 5,0 4,8 1,7 7,0 12,0 15,6 2 1 4 2 WNW 1026,0 0,1 0 0,0
20.10.2018 04:00:00 5,0 4,5 2,7 7,2 12,3 15,6 2 1 6 3 NE 1026,2 2,4 0 0,0
20.10.2018 03:00:00 6,1 5,8 2,7 7,6 12,6 15,6 1 0 5 3 SW 1025,8 0,3 0 0,0
20.10.2018 02:00:00 6,2 6,1 2,7 8,0 12,9 15,6 3 1 6 4 S 1025,6 0,4 0 0,0
20.10.2018 01:00:00 6,5 6,4 3,1 8,4 13,2 15,6 0 0 5 3 N 1025,0 0,1 0 0,0
20.10.2018 00:00:00 6,9 6,4 3,9 8,9 13,5 15,6 3 1 5 3 NE 1025,3 2,1 0 0,0
19.10.2018 23:00:00 7,8 7,6 3,9 9,5 13,8 15,6 0 0 5 3 N 1024,7 3,1 0 0,0
19.10.2018 22:00:00 8,6 8,5 4,8 10,2 14,1 15,6 3 2 5 3 SW 1024,3 1,5 0 0,0
19.10.2018 21:00:00 9,1 8,7 5,6 11,0 14,4 15,6 4 2 5 3 N 1023,4 1,4 0 0,0
19.10.2018 20:00:00 11,4 10,5 6,7 12,1 14,6 15,6 0 0 8 4 N 1022,6 3,1 0 0,0
19.10.2018 19:00:00 12,9 10,5 9,3 13,6 14,7 15,6 5 3 8 4 WSW 1021,9 5 0 0,0
19.10.2018 18:00:00 16,2 10,4 16,2 16,1 14,6 15,6 2 1 5 3 WNW 1021,0 7 42 0,0
19.10.2018 17:00:00 17,0 10,4 20,3 18,0 14,2 15,7 3 1 8 4 NW 1020,7 7 60 0,0
19.10.2018 16:00:00 16,3 10,2 20,2 19,0 13,8 15,7 3 2 9 5 WSW 1021,0 6 60 0,0
19.10.2018 15:00:00 14,6 9,9 19,8 18,5 13,3 15,7 4 2 10 5 NNW 1021,5 5 53 0,0
19.10.2018 14:00:00 11,6 10,0 15,1 15,0 13,1 15,7 6 3 12 7 NW 1022,3 3,4 0 0,0
19.10.2018 13:00:00 10,6 9,4 13,1 14,2 12,9 15,7 5 3 10 6 W 1022,8 3,1 0 0,0
19.10.2018 12:00:00 10,0 9,4 12,2 13,3 12,8 15,7 4 2 9 5 NNE 1023,0 3,0 0 0,0
19.10.2018 11:00:00 9,6 9,3 11,0 12,2 12,7 15,7 6 4 8 5 NW 1023,1 2,0 0 0,0
19.10.2018 10:00:00 9,4 9,4 10,5 11,4 12,7 15,7 5 3 7 4 NW 1022,9 0,4 0 0,0
19.10.2018 09:00:00 9,4 9,4 9,9 11,1 12,7 15,7 4 2 8 4 WNW 1022,2 0,2 0 0,0
19.10.2018 08:00:00 9,4 9,4 9,6 10,9 12,7 15,7 2 1 7 4 WSW 1021,5 0,1 0 0,0
19.10.2018 07:00:00 9,4 9,3 9,6 10,8 12,7 15,7 3 1 6 4 ENE 1021,1 0,1 0 0,0
19.10.2018 06:00:00 9,6 9,5 9,7 10,5 12,8 15,7 4 2 8 5 NNE 1020,5 0,1 0 0,0
19.10.2018 05:00:00 9,9 9,7 9,6 9,9 12,9 15,7 2 1 6 4 NE 1020,3 0,5 0 0,0
19.10.2018 04:00:00 8,0 8,0 5,9 8,8 13,2 15,7 2 1 6 4 SSW 1020,5 0,1 0 0,0
19.10.2018 03:00:00 9,7 9,4 5,5 9,1 13,4 15,7 3 2 8 4 NE 1020,3 1,3 0 0,0
19.10.2018 02:00:00 9,7 9,7 5,3 9,7 13,7 15,7 3 2 10 5 NW 1020,5 1,1 0 0,0
19.10.2018 01:00:00 11,1 10,4 8,8 9,9 13,9 15,7 8 5 14 7 N 1020,6 3,3 0 0,0
19.10.2018 00:00:00 9,6 8,9 5,8 10,2 14,3 15,7 0 0 5 3 N 1020,7 6 0 0,0
18.10.2018 23:00:00 10,5 9,1 6,3 10,9 14,6 15,7 0 0 10 5 N 1020,6 9 0 0,0
18.10.2018 22:00:00 10,5 9,7 6,6 11,5 14,9 15,7 0 0 6 4 N 1020,4 9 0 0,0
18.10.2018 21:00:00 11,2 9,8 6,7 12,3 15,2 15,7 0 0 4 2 N 1019,8 11 0 0,0
18.10.2018 20:00:00 12,7 10,1 7,9 13,5 15,4 15,8 0 0 7 4 N 1018,9 14 0 0,0
18.10.2018 19:00:00 17,3 11,2 11,7 15,4 15,4 15,8 4 2 13 7 NNE 1017,7 15 0 0,0
18.10.2018 18:00:00 19,6 11,1 18,5 17,5 15,3 15,8 9 5 20 11 N 1017,0 22 42 0,0
18.10.2018 17:00:00 20,8 10,7 24,0 19,4 15,0 15,8 10 5 18 10 N 1017,0 20 60 0,0
18.10.2018 16:00:00 20,6 10,4 24,4 20,4 14,5 15,8 8 4 13 7 NNW 1017,2 17 60 0,0
18.10.2018 15:00:00 19,4 10,0 23,7 20,7 13,9 15,8 6 4 13 7 NNW 1017,6 19 60 0,0
18.10.2018 14:00:00 17,8 10,2 22,7 19,9 13,3 15,8 7 4 12 6 NW 1018,4 13 60 0,0
18.10.2018 13:00:00 16,0 10,0 21,5 18,5 12,8 15,8 6 3 15 8 NW 1019,1 10 60 0,0
18.10.2018 12:00:00 14,4 9,9 20,7 16,4 12,4 15,8 8 4 11 6 NW 1019,5 10 60 0,0
18.10.2018 11:00:00 11,5 9,6 15,8 13,2 12,2 15,8 7 4 10 5 NNW 1020,0 6 60 0,0
18.10.2018 10:00:00 9,9 9,1 11,2 10,4 12,2 15,8 0 0 3 2 N 1019,8 4,1 18 0,0
18.10.2018 09:00:00 7,1 7,1 6,4 8,3 12,4 15,8 0 0 4 2 N 1019,8 3,3 0 0,0
18.10.2018 08:00:00 5,9 5,6 2,5 7,7 12,7 15,8 0 0 3 2 N 1019,5 0,2 0 0,0
18.10.2018 07:00:00 6,6 6,4 3,5 8,0 12,9 15,8 0 0 3 2 N 1019,1 6 0 0,0
18.10.2018 06:00:00 6,6 6,1 3,0 8,4 13,2 15,8 0 0 3 2 N 1019,0 11 0 0,0
18.10.2018 05:00:00 7,3 7,0 4,0 8,9 13,4 15,8 1 1 3 2 S 1018,7 10 0 0,0
18.10.2018 04:00:00 7,6 6,7 4,7 9,3 13,7 15,8 0 0 6 3 N 1018,7 4,8 0 0,0
18.10.2018 03:00:00 8,1 7,7 5,0 9,8 13,9 15,8 3 2 6 3 NNE 1018,8 5 0 0,0
18.10.2018 02:00:00 8,0 7,2 5,3 10,1 14,2 15,8 0 0 3 2 N 1018,8 5 0 0,0
18.10.2018 01:00:00 9,4 8,6 6,0 10,6 14,5 15,8 0 0 5 3 N 1018,8 8 0 0,0

tt = Température de l'air
td = dewpoint
tt 5cm = Température de l'air 5cm
tt -5cm = Température de l'air -5cm
tt -20cm = Température de l'air -20cm
tt -100cm = Température de l'air -100cm
ff = Vitesse du vent
fx = gusts
dd = Direction du vent
ppp = reduced air pressure
vv = visibility
sd = Ensoleillement
rr = Quantités de précipitations

stations d'obs. à proximité